Location: Heidgraben
(53.7081°N, 9.6576°E)
Time: 04:21:07
(UTC+00:00)

SeaSat 1 - Pass Details

Date: 05 July 2020
Orbit: 744 x 747 km, 108.0° (Epoch: 06 August)

Event Time Altitude Azimuth Distance (km) Brightness Sun altitude
Rises 23:41:52 0° 42° (NE) 3,202 6.6 -13.6°
Reaches altitude 10° 23:44:50 10° 61° (ENE) 2,273 5.4 -13.5°
Maximum altitude 23:48:13 18° 104° (ESE) 1,764 4.3 -13.5°
Enters shadow 23:51:18 11° 145° (SE) 2,185 4.4 -13.4°
